Year,Month,Day,Hour,Minute,Value (Times are PST for windgust in km/hr)
2010,04,03,00,00,20.90
2010,04,03,00,01,24.20
2010,04,03,00,02,35.40
2010,04,03,00,03,29.00
2010,04,03,00,04,29.00
2010,04,03,00,05,35.40
2010,04,03,00,06,33.80
2010,04,03,00,07,46.70
2010,04,03,00,08,35.40
2010,04,03,00,09,29.00
2010,04,03,00,10,30.60
2010,04,03,00,11,22.50
2010,04,03,00,12,35.40
2010,04,03,00,13,30.60
2010,04,03,00,14,19.30
2010,04,03,00,15,32.20
2010,04,03,00,16,27.40
2010,04,03,00,17,20.90
2010,04,03,00,18,19.30
2010,04,03,00,19,32.20
2010,04,03,00,20,48.30
2010,04,03,00,21,25.70
2010,04,03,00,22,40.20
2010,04,03,00,23,33.80
2010,04,03,00,24,33.80
2010,04,03,00,25,37.00
2010,04,03,00,26,27.40
2010,04,03,00,27,25.70
2010,04,03,00,28,32.20
2010,04,03,00,29,19.30
2010,04,03,00,30,37.00
2010,04,03,00,31,35.40
2010,04,03,00,32,33.80
2010,04,03,00,33,32.20
2010,04,03,00,34,40.20
2010,04,03,00,35,35.40
2010,04,03,00,36,32.20
2010,04,03,00,37,37.00
2010,04,03,00,38,35.40
2010,04,03,00,39,29.00
2010,04,03,00,40,33.80
2010,04,03,00,41,40.20
2010,04,03,00,42,20.90
2010,04,03,00,43,27.40
2010,04,03,00,44,32.20
2010,04,03,00,45,41.80
2010,04,03,00,46,25.70
2010,04,03,00,47,38.60
2010,04,03,00,48,29.00
2010,04,03,00,49,29.00
2010,04,03,00,50,29.00
2010,04,03,00,51,37.00
2010,04,03,00,52,35.40
2010,04,03,00,53,32.20
2010,04,03,00,54,27.40
2010,04,03,00,55,25.70
2010,04,03,00,56,35.40
2010,04,03,00,57,37.00
2010,04,03,00,58,33.80
2010,04,03,00,59,32.20
2010,04,03,01,00,33.80
2010,04,03,01,01,45.10
2010,04,03,01,02,29.00
2010,04,03,01,03,35.40
2010,04,03,01,04,30.60
2010,04,03,01,05,32.20
2010,04,03,01,06,19.30
2010,04,03,01,07,25.70
2010,04,03,01,08,22.50
2010,04,03,01,09,27.40
2010,04,03,01,10,22.50
2010,04,03,01,11,11.30
2010,04,03,01,12,25.70
2010,04,03,01,13,19.30
2010,04,03,01,14,27.40
2010,04,03,01,15,19.30
2010,04,03,01,16,29.00
2010,04,03,01,17,25.70
2010,04,03,01,18,24.20
2010,04,03,01,19,25.70
2010,04,03,01,20,29.00
2010,04,03,01,21,25.70
2010,04,03,01,22,22.50
2010,04,03,01,23,32.20
2010,04,03,01,24,32.20
2010,04,03,01,25,24.20
2010,04,03,01,26,24.20
2010,04,03,01,27,20.90
2010,04,03,01,28,16.10
2010,04,03,01,29,19.30
2010,04,03,01,30,19.30
2010,04,03,01,31,25.70
2010,04,03,01,32,22.50
2010,04,03,01,33,20.90
2010,04,03,01,34,25.70
2010,04,03,01,35,37.00
2010,04,03,01,36,27.40
2010,04,03,01,37,29.00
2010,04,03,01,38,25.70
2010,04,03,01,39,30.60
2010,04,03,01,40,35.40
2010,04,03,01,41,29.00
2010,04,03,01,42,22.50
2010,04,03,01,43,20.90
2010,04,03,01,44,20.90
2010,04,03,01,45,11.30
2010,04,03,01,46,11.30
2010,04,03,01,47,20.90
2010,04,03,01,48,20.90
2010,04,03,01,49,19.30
2010,04,03,01,50,22.50
2010,04,03,01,51,17.70
2010,04,03,01,52,22.50
2010,04,03,01,53,16.10
2010,04,03,01,54,19.30
2010,04,03,01,55,14.50
2010,04,03,01,56,17.70
2010,04,03,01,57,16.10
2010,04,03,01,58,16.10
2010,04,03,01,59,27.40
2010,04,03,02,00,11.30
2010,04,03,02,01,32.20
2010,04,03,02,02,17.70
2010,04,03,02,03,24.20
2010,04,03,02,04,22.50
2010,04,03,02,05,17.70
2010,04,03,02,06,11.30
2010,04,03,02,07,29.00
2010,04,03,02,08,29.00
2010,04,03,02,09,27.40
2010,04,03,02,10,19.30
2010,04,03,02,11,22.50
2010,04,03,02,12,33.80
2010,04,03,02,13,22.50
2010,04,03,02,14,19.30
2010,04,03,02,15,35.40
2010,04,03,02,16,27.40
2010,04,03,02,17,17.70
2010,04,03,02,18,20.90
2010,04,03,02,19,32.20
2010,04,03,02,20,32.20
2010,04,03,02,21,32.20
2010,04,03,02,22,30.60
2010,04,03,02,23,22.50
2010,04,03,02,24,33.80
2010,04,03,02,25,27.40
2010,04,03,02,26,40.20
2010,04,03,02,27,30.60
2010,04,03,02,28,30.60
2010,04,03,02,29,35.40
2010,04,03,02,30,32.20
2010,04,03,02,31,35.40
2010,04,03,02,32,24.20
2010,04,03,02,33,25.70
2010,04,03,02,34,30.60
2010,04,03,02,35,27.40
2010,04,03,02,36,30.60
2010,04,03,02,37,25.70
2010,04,03,02,38,27.40
2010,04,03,02,39,30.60
2010,04,03,02,40,25.70
2010,04,03,02,41,25.70
2010,04,03,02,42,19.30
2010,04,03,02,43,25.70
2010,04,03,02,44,22.50
2010,04,03,02,45,17.70
2010,04,03,02,46,25.70
2010,04,03,02,47,22.50
2010,04,03,02,48,24.20
2010,04,03,02,49,29.00
2010,04,03,02,50,25.70
2010,04,03,02,51,29.00
2010,04,03,02,52,25.70
2010,04,03,02,53,20.90
2010,04,03,02,54,24.20
2010,04,03,02,55,20.90
2010,04,03,02,56,24.20
2010,04,03,02,57,20.90
2010,04,03,02,58,27.40
2010,04,03,02,59,32.20
2010,04,03,03,00,11.30
2010,04,03,03,01,20.90
2010,04,03,03,02,24.20
2010,04,03,03,03,11.30
2010,04,03,03,04,16.10
2010,04,03,03,05,19.30
2010,04,03,03,06,32.20
2010,04,03,03,07,17.70
2010,04,03,03,08,17.70
2010,04,03,03,09,27.40
2010,04,03,03,10,29.00
2010,04,03,03,11,25.70
2010,04,03,03,12,24.20
2010,04,03,03,13,37.00
2010,04,03,03,14,29.00
2010,04,03,03,15,38.60
2010,04,03,03,16,38.60
2010,04,03,03,17,22.50
2010,04,03,03,18,14.50
2010,04,03,03,19,30.60
2010,04,03,03,20,25.70
2010,04,03,03,21,16.10
2010,04,03,03,22,19.30
2010,04,03,03,23,19.30
2010,04,03,03,24,14.50
2010,04,03,03,25,25.70
2010,04,03,03,26,19.30
2010,04,03,03,27,17.70
2010,04,03,03,28,14.50
2010,04,03,03,29,24.20
2010,04,03,03,30,11.30
2010,04,03,03,31,9.60
2010,04,03,03,32,6.40
2010,04,03,03,33,19.30
2010,04,03,03,34,16.10
2010,04,03,03,35,8.10
2010,04,03,03,36,20.90
2010,04,03,03,37,29.00
2010,04,03,03,38,22.50
2010,04,03,03,39,24.20
2010,04,03,03,40,20.90
2010,04,03,03,41,43.50
2010,04,03,03,42,24.20
2010,04,03,03,43,27.40
2010,04,03,03,44,29.00
2010,04,03,03,45,29.00
2010,04,03,03,46,27.40
2010,04,03,03,47,32.20
2010,04,03,03,48,37.00
2010,04,03,03,49,22.50
2010,04,03,03,50,29.00
2010,04,03,03,51,20.90
2010,04,03,03,52,37.00
2010,04,03,03,53,25.70
2010,04,03,03,54,37.00
2010,04,03,03,55,33.80
2010,04,03,03,56,37.00
2010,04,03,03,57,27.40
2010,04,03,03,58,24.20
2010,04,03,03,59,25.70
2010,04,03,04,00,27.40
2010,04,03,04,01,29.00
2010,04,03,04,02,30.60
2010,04,03,04,03,29.00
2010,04,03,04,04,22.50
2010,04,03,04,05,35.40
2010,04,03,04,06,32.20
2010,04,03,04,07,33.80
2010,04,03,04,08,29.00
2010,04,03,04,09,24.20
2010,04,03,04,10,19.30
2010,04,03,04,11,24.20
2010,04,03,04,12,20.90
2010,04,03,04,13,24.20
2010,04,03,04,14,25.70
2010,04,03,04,15,22.50
2010,04,03,04,16,20.90
2010,04,03,04,17,17.70
2010,04,03,04,18,12.90
2010,04,03,04,19,19.30
2010,04,03,04,20,24.20
2010,04,03,04,21,19.30
2010,04,03,04,22,27.40
2010,04,03,04,23,27.40
2010,04,03,04,24,24.20
2010,04,03,04,25,29.00
2010,04,03,04,26,25.70
2010,04,03,04,27,22.50
2010,04,03,04,28,30.60
2010,04,03,04,29,29.00
2010,04,03,04,30,48.30
2010,04,03,04,31,27.40
2010,04,03,04,32,27.40
2010,04,03,04,33,24.20
2010,04,03,04,34,27.40
2010,04,03,04,35,27.40
2010,04,03,04,36,27.40
2010,04,03,04,37,32.20
2010,04,03,04,38,25.70
2010,04,03,04,39,32.20
2010,04,03,04,40,19.30
2010,04,03,04,41,14.50
2010,04,03,04,42,25.70
2010,04,03,04,43,20.90
2010,04,03,04,44,24.20
2010,04,03,04,45,24.20
2010,04,03,04,46,27.40
2010,04,03,04,47,27.40
2010,04,03,04,48,24.20
2010,04,03,04,49,16.10
2010,04,03,04,50,14.50
2010,04,03,04,51,25.70
2010,04,03,04,52,30.60
2010,04,03,04,53,19.30
2010,04,03,04,54,24.20
2010,04,03,04,55,16.10
2010,04,03,04,56,17.70
2010,04,03,04,57,11.30
2010,04,03,04,58,16.10
2010,04,03,04,59,19.30
2010,04,03,05,00,9.60
2010,04,03,05,01,9.60
2010,04,03,05,02,22.50
2010,04,03,05,03,9.60
2010,04,03,05,04,19.30
2010,04,03,05,05,30.60
2010,04,03,05,06,16.10
2010,04,03,05,07,27.40
2010,04,03,05,08,20.90
2010,04,03,05,09,20.90
2010,04,03,05,10,17.70
2010,04,03,05,11,17.70
2010,04,03,05,12,19.30
2010,04,03,05,13,20.90
2010,04,03,05,14,17.70
2010,04,03,05,15,16.10
2010,04,03,05,16,9.60
2010,04,03,05,17,12.90
2010,04,03,05,18,19.30
2010,04,03,05,19,17.70
2010,04,03,05,20,11.30
2010,04,03,05,21,25.70
2010,04,03,05,22,17.70
2010,04,03,05,23,25.70
2010,04,03,05,24,20.90
2010,04,03,05,25,24.20
2010,04,03,05,26,20.90
2010,04,03,05,27,27.40
2010,04,03,05,28,11.30
2010,04,03,05,29,14.50
2010,04,03,05,30,19.30
2010,04,03,05,31,22.50
2010,04,03,05,32,11.30
2010,04,03,05,33,14.50
2010,04,03,05,34,22.50
2010,04,03,05,35,20.90
2010,04,03,05,36,16.10
2010,04,03,05,37,19.30
2010,04,03,05,38,24.20
2010,04,03,05,39,16.10
2010,04,03,05,40,22.50
2010,04,03,05,41,22.50
2010,04,03,05,42,16.10
2010,04,03,05,43,24.20
2010,04,03,05,44,9.60
2010,04,03,05,45,17.70
2010,04,03,05,46,20.90
2010,04,03,05,47,11.30
2010,04,03,05,48,20.90
2010,04,03,05,49,16.10
2010,04,03,05,50,14.50
2010,04,03,05,51,8.10
2010,04,03,05,52,17.70
2010,04,03,05,53,19.30
2010,04,03,05,54,11.30
2010,04,03,05,55,16.10
2010,04,03,05,56,6.40
2010,04,03,05,57,1.60
2010,04,03,05,58,8.10
2010,04,03,05,59,11.30
2010,04,03,06,00,14.50
2010,04,03,06,01,6.40
2010,04,03,06,02,8.10
2010,04,03,06,03,4.80
2010,04,03,06,04,14.50
2010,04,03,06,05,14.50
2010,04,03,06,06,14.50
2010,04,03,06,07,17.70
2010,04,03,06,08,19.30
2010,04,03,06,09,20.90
2010,04,03,06,10,16.10
2010,04,03,06,11,16.10
2010,04,03,06,12,9.60
2010,04,03,06,13,17.70
2010,04,03,06,14,16.10
2010,04,03,06,15,17.70
2010,04,03,06,16,12.90
2010,04,03,06,17,19.30
2010,04,03,06,18,14.50
2010,04,03,06,19,17.70
2010,04,03,06,20,11.30
2010,04,03,06,21,16.10
2010,04,03,06,22,16.10
2010,04,03,06,23,17.70
2010,04,03,06,24,19.30
2010,04,03,06,25,17.70
2010,04,03,06,26,11.30
2010,04,03,06,27,16.10
2010,04,03,06,28,22.50
2010,04,03,06,29,20.90
2010,04,03,06,30,33.80
2010,04,03,06,31,20.90
2010,04,03,06,32,25.70
2010,04,03,06,33,19.30
2010,04,03,06,34,14.50
2010,04,03,06,35,24.20
2010,04,03,06,36,19.30
2010,04,03,06,37,25.70
2010,04,03,06,38,19.30
2010,04,03,06,39,17.70
2010,04,03,06,40,8.10
2010,04,03,06,41,16.10
2010,04,03,06,42,16.10
2010,04,03,06,43,25.70
2010,04,03,06,44,17.70
2010,04,03,06,45,6.40
2010,04,03,06,46,17.70
2010,04,03,06,47,22.50
2010,04,03,06,48,9.60
2010,04,03,06,49,6.40
2010,04,03,06,50,22.50
2010,04,03,06,51,29.00
2010,04,03,06,52,8.10
2010,04,03,06,53,11.30
2010,04,03,06,54,14.50
2010,04,03,06,55,17.70
2010,04,03,06,56,17.70
2010,04,03,06,57,24.20
2010,04,03,06,58,16.10
2010,04,03,06,59,16.10
2010,04,03,07,00,16.10
2010,04,03,07,01,25.70
2010,04,03,07,02,22.50
2010,04,03,07,03,17.70
2010,04,03,07,04,8.10
2010,04,03,07,05,11.30
2010,04,03,07,06,11.30
2010,04,03,07,07,19.30
2010,04,03,07,08,11.30
2010,04,03,07,09,17.70
2010,04,03,07,10,8.10
2010,04,03,07,11,8.10
2010,04,03,07,12,8.10
2010,04,03,07,13,14.50
2010,04,03,07,14,6.40
2010,04,03,07,15,24.20
2010,04,03,07,16,29.00
2010,04,03,07,17,27.40
2010,04,03,07,18,16.10
2010,04,03,07,19,16.10
2010,04,03,07,20,20.90
2010,04,03,07,21,9.60
2010,04,03,07,22,11.30
2010,04,03,07,23,14.50
2010,04,03,07,24,4.80
2010,04,03,07,25,19.30
2010,04,03,07,26,9.60
2010,04,03,07,27,6.40
2010,04,03,07,28,16.10
2010,04,03,07,29,11.30
2010,04,03,07,30,14.50
2010,04,03,07,31,8.10
2010,04,03,07,32,12.90
2010,04,03,07,33,9.60
2010,04,03,07,34,17.70
2010,04,03,07,35,11.30
2010,04,03,07,36,17.70
2010,04,03,07,37,25.70
2010,04,03,07,38,24.20
2010,04,03,07,39,25.70
2010,04,03,07,40,16.10
2010,04,03,07,41,17.70
2010,04,03,07,42,11.30
2010,04,03,07,43,8.10
2010,04,03,07,44,14.50
2010,04,03,07,45,8.10
2010,04,03,07,46,24.20
2010,04,03,07,47,20.90
2010,04,03,07,48,22.50
2010,04,03,07,49,27.40
2010,04,03,07,50,20.90
2010,04,03,07,51,20.90
2010,04,03,07,52,19.30
2010,04,03,07,53,25.70
2010,04,03,07,54,22.50
2010,04,03,07,55,19.30
2010,04,03,07,56,19.30
2010,04,03,07,57,17.70
2010,04,03,07,58,25.70
2010,04,03,07,59,29.00
2010,04,03,08,00,24.20
2010,04,03,08,01,16.10
2010,04,03,08,02,29.00
2010,04,03,08,03,19.30
2010,04,03,08,04,29.00
2010,04,03,08,05,32.20
2010,04,03,08,06,20.90
2010,04,03,08,07,20.90
2010,04,03,08,08,25.70
2010,04,03,08,09,24.20
2010,04,03,08,10,25.70
2010,04,03,08,11,19.30
2010,04,03,08,12,30.60
2010,04,03,08,13,27.40
2010,04,03,08,14,25.70
2010,04,03,08,15,20.90
2010,04,03,08,16,25.70
2010,04,03,08,17,16.10
2010,04,03,08,18,9.60
2010,04,03,08,19,14.50
2010,04,03,08,20,9.60
2010,04,03,08,21,8.10
2010,04,03,08,22,9.60
2010,04,03,08,23,20.90
2010,04,03,08,24,14.50
2010,04,03,08,25,16.10
2010,04,03,08,26,11.30
2010,04,03,08,27,11.30
2010,04,03,08,28,9.60
2010,04,03,08,29,6.40
2010,04,03,08,30,9.60
2010,04,03,08,31,14.50
2010,04,03,08,32,22.50
2010,04,03,08,33,17.70
2010,04,03,08,34,17.70
2010,04,03,08,35,14.50
2010,04,03,08,36,17.70
2010,04,03,08,37,19.30
2010,04,03,08,38,9.60
2010,04,03,08,39,22.50
2010,04,03,08,40,19.30
2010,04,03,08,41,24.20
2010,04,03,08,42,20.90
2010,04,03,08,43,12.90
2010,04,03,08,44,14.50
2010,04,03,08,45,14.50
2010,04,03,08,46,19.30
2010,04,03,08,47,17.70
2010,04,03,08,48,16.10
2010,04,03,08,49,19.30
2010,04,03,08,50,20.90
2010,04,03,08,51,16.10
2010,04,03,08,52,16.10
2010,04,03,08,53,12.90
2010,04,03,08,54,16.10
2010,04,03,08,55,12.90
2010,04,03,08,56,16.10
2010,04,03,08,57,11.30
2010,04,03,08,58,9.60
2010,04,03,08,59,3.20
2010,04,03,09,00,16.10
2010,04,03,09,01,6.40
2010,04,03,09,02,8.10
2010,04,03,09,03,9.60
2010,04,03,09,04,11.30
2010,04,03,09,05,11.30
2010,04,03,09,06,11.30
2010,04,03,09,07,20.90
2010,04,03,09,08,20.90
2010,04,03,09,09,9.60
2010,04,03,09,10,11.30
2010,04,03,09,11,11.30
2010,04,03,09,12,16.10
2010,04,03,09,13,19.30
2010,04,03,09,14,14.50
2010,04,03,09,15,20.90
2010,04,03,09,16,16.10
2010,04,03,09,17,19.30
2010,04,03,09,18,19.30
2010,04,03,09,19,17.70
2010,04,03,09,20,11.30
2010,04,03,09,21,19.30
2010,04,03,09,22,11.30
2010,04,03,09,23,16.10
2010,04,03,09,24,22.50
2010,04,03,09,25,25.70
2010,04,03,09,26,19.30
2010,04,03,09,27,14.50
2010,04,03,09,28,14.50
2010,04,03,09,29,19.30
2010,04,03,09,30,14.50
2010,04,03,09,31,17.70
2010,04,03,09,32,17.70
2010,04,03,09,33,19.30
2010,04,03,09,34,20.90
2010,04,03,09,35,20.90
2010,04,03,09,36,8.10
2010,04,03,09,37,16.10
2010,04,03,09,38,6.40
2010,04,03,09,39,24.20
2010,04,03,09,40,17.70
2010,04,03,09,41,16.10
2010,04,03,09,42,14.50
2010,04,03,09,43,17.70
2010,04,03,09,44,19.30
2010,04,03,09,45,11.30
2010,04,03,09,46,17.70
2010,04,03,09,47,22.50
2010,04,03,09,48,11.30
2010,04,03,09,49,20.90
2010,04,03,09,50,24.20
2010,04,03,09,51,14.50
2010,04,03,09,52,25.70
2010,04,03,09,53,35.40
2010,04,03,09,54,27.40
2010,04,03,09,55,22.50
2010,04,03,09,56,16.10
2010,04,03,09,57,17.70
2010,04,03,09,58,33.80
2010,04,03,09,59,27.40
2010,04,03,10,00,29.00
2010,04,03,10,01,20.90
2010,04,03,10,02,22.50
2010,04,03,10,03,17.70
2010,04,03,10,04,22.50
2010,04,03,10,05,33.80
2010,04,03,10,06,24.20
2010,04,03,10,07,19.30
2010,04,03,10,08,20.90
2010,04,03,10,09,19.30
2010,04,03,10,10,30.60
2010,04,03,10,11,14.50
2010,04,03,10,12,24.20
2010,04,03,10,13,19.30
2010,04,03,10,14,20.90
2010,04,03,10,15,22.50
2010,04,03,10,16,17.70
2010,04,03,10,17,20.90
2010,04,03,10,18,17.70
2010,04,03,10,19,8.10
2010,04,03,10,20,9.60
2010,04,03,10,21,11.30
2010,04,03,10,22,20.90
2010,04,03,10,23,24.20
2010,04,03,10,24,16.10
2010,04,03,10,25,22.50
2010,04,03,10,26,19.30
2010,04,03,10,27,24.20
2010,04,03,10,28,8.10
2010,04,03,10,29,30.60
2010,04,03,10,30,24.20
2010,04,03,10,31,17.70
2010,04,03,10,32,19.30
2010,04,03,10,33,17.70
2010,04,03,10,34,14.50
2010,04,03,10,35,11.30
2010,04,03,10,36,17.70
2010,04,03,10,37,8.10
2010,04,03,10,38,22.50
2010,04,03,10,39,11.30
2010,04,03,10,40,9.60
2010,04,03,10,41,22.50
2010,04,03,10,42,20.90
2010,04,03,10,43,14.50
2010,04,03,10,44,8.10
2010,04,03,10,45,19.30
2010,04,03,10,46,16.10
2010,04,03,10,47,17.70
2010,04,03,10,48,14.50
2010,04,03,10,49,9.60
2010,04,03,10,50,17.70
2010,04,03,10,51,16.10
2010,04,03,10,52,17.70
2010,04,03,10,53,9.60
2010,04,03,10,54,11.30
2010,04,03,10,55,11.30
2010,04,03,10,56,12.90
2010,04,03,10,57,11.30
2010,04,03,10,58,11.30
2010,04,03,10,59,8.10
2010,04,03,11,00,8.10
2010,04,03,11,01,6.40
2010,04,03,11,02,8.10
2010,04,03,11,03,9.60
2010,04,03,11,04,11.30
2010,04,03,11,05,11.30
2010,04,03,11,06,11.30
2010,04,03,11,07,14.50
2010,04,03,11,08,6.40
2010,04,03,11,09,8.10
2010,04,03,11,10,8.10
2010,04,03,11,11,6.40
2010,04,03,11,12,4.80
2010,04,03,11,13,9.60
2010,04,03,11,14,6.40
2010,04,03,11,15,6.40
2010,04,03,11,16,9.60
2010,04,03,11,17,8.10
2010,04,03,11,18,11.30
2010,04,03,11,19,6.40
2010,04,03,11,20,9.60
2010,04,03,11,21,6.40
2010,04,03,11,22,6.40
2010,04,03,11,23,8.10
2010,04,03,11,24,6.40
2010,04,03,11,25,6.40
2010,04,03,11,26,4.80
2010,04,03,11,27,4.80
2010,04,03,11,28,6.40
2010,04,03,11,29,4.80
2010,04,03,11,30,6.40
2010,04,03,11,31,4.80
2010,04,03,11,32,8.10
2010,04,03,11,33,8.10
2010,04,03,11,34,8.10
2010,04,03,11,35,4.80
2010,04,03,11,36,6.40
2010,04,03,11,37,4.80
2010,04,03,11,38,4.80
2010,04,03,11,39,4.80
2010,04,03,11,40,8.10
2010,04,03,11,41,8.10
2010,04,03,11,42,11.30
2010,04,03,11,43,4.80
2010,04,03,11,44,4.80
2010,04,03,11,45,8.10
2010,04,03,11,46,4.80
2010,04,03,11,47,3.20
2010,04,03,11,48,4.80
2010,04,03,11,49,3.20
2010,04,03,11,50,4.80
2010,04,03,11,51,9.60
2010,04,03,11,52,14.50
2010,04,03,11,53,4.80
2010,04,03,11,54,4.80
2010,04,03,11,55,8.10
2010,04,03,11,56,8.10
2010,04,03,11,57,8.10
2010,04,03,11,58,8.10
2010,04,03,11,59,6.40
2010,04,03,12,00,4.80
2010,04,03,12,01,3.20
2010,04,03,12,02,3.20
2010,04,03,12,03,3.20
2010,04,03,12,04,4.80
2010,04,03,12,05,4.80
2010,04,03,12,06,4.80
2010,04,03,12,07,6.40
2010,04,03,12,08,8.10
2010,04,03,12,09,8.10
2010,04,03,12,10,8.10
2010,04,03,12,11,3.20
2010,04,03,12,12,4.80
2010,04,03,12,13,3.20
2010,04,03,12,14,4.80
2010,04,03,12,15,4.80
2010,04,03,12,16,8.10
2010,04,03,12,17,9.60
2010,04,03,12,18,8.10
2010,04,03,12,19,6.40
2010,04,03,12,20,6.40
2010,04,03,12,21,6.40
2010,04,03,12,22,6.40
2010,04,03,12,23,8.10
2010,04,03,12,24,4.80
2010,04,03,12,25,8.10
2010,04,03,12,26,9.60
2010,04,03,12,27,3.20
2010,04,03,12,28,4.80
2010,04,03,12,29,4.80
2010,04,03,12,30,6.40
2010,04,03,12,31,6.40
2010,04,03,12,32,3.20
2010,04,03,12,33,11.30
2010,04,03,12,34,6.40
2010,04,03,12,35,6.40
2010,04,03,12,36,9.60
2010,04,03,12,37,8.10
2010,04,03,12,38,6.40
2010,04,03,12,39,4.80
2010,04,03,12,40,6.40
2010,04,03,12,41,8.10
2010,04,03,12,42,8.10
2010,04,03,12,43,4.80
2010,04,03,12,44,6.40
2010,04,03,12,45,9.60
2010,04,03,12,46,6.40
2010,04,03,12,47,8.10
2010,04,03,12,48,4.80
2010,04,03,12,49,4.80
2010,04,03,12,50,6.40
2010,04,03,12,51,9.60
2010,04,03,12,52,9.60
2010,04,03,12,53,6.40
2010,04,03,12,54,4.80
2010,04,03,12,55,4.80
2010,04,03,12,56,4.80
2010,04,03,12,57,4.80
2010,04,03,12,58,4.80
2010,04,03,12,59,8.10
2010,04,03,13,00,6.40
2010,04,03,13,01,9.60
2010,04,03,13,02,6.40
2010,04,03,13,03,8.10
2010,04,03,13,04,8.10
2010,04,03,13,05,4.80
2010,04,03,13,06,6.40
2010,04,03,13,07,4.80
2010,04,03,13,08,1.60
2010,04,03,13,09,3.20
2010,04,03,13,10,4.80
2010,04,03,13,11,8.10
2010,04,03,13,12,9.60
2010,04,03,13,13,6.40
2010,04,03,13,14,16.10
2010,04,03,13,15,11.30
2010,04,03,13,16,6.40
2010,04,03,13,17,4.80
2010,04,03,13,18,11.30
2010,04,03,13,19,11.30
2010,04,03,13,20,8.10
2010,04,03,13,21,8.10
2010,04,03,13,22,6.40
2010,04,03,13,23,8.10
2010,04,03,13,24,6.40
2010,04,03,13,25,9.60
2010,04,03,13,26,6.40
2010,04,03,13,27,9.60
2010,04,03,13,28,11.30
2010,04,03,13,29,9.60
2010,04,03,13,30,9.60
2010,04,03,13,31,8.10
2010,04,03,13,32,6.40
2010,04,03,13,33,3.20
2010,04,03,13,34,4.80
2010,04,03,13,35,8.10
2010,04,03,13,36,9.60
2010,04,03,13,37,17.70
2010,04,03,13,38,14.50
2010,04,03,13,39,8.10
2010,04,03,13,40,6.40
2010,04,03,13,41,9.60
2010,04,03,13,42,11.30
2010,04,03,13,43,11.30
2010,04,03,13,44,14.50
2010,04,03,13,45,11.30
2010,04,03,13,46,8.10
2010,04,03,13,47,4.80
2010,04,03,13,48,3.20
2010,04,03,13,49,4.80
2010,04,03,13,50,4.80
2010,04,03,13,51,11.30
2010,04,03,13,52,14.50
2010,04,03,13,53,11.30
2010,04,03,13,54,9.60
2010,04,03,13,55,11.30
2010,04,03,13,56,12.90
2010,04,03,13,57,6.40
2010,04,03,13,58,11.30
2010,04,03,13,59,9.60
2010,04,03,14,00,12.90
2010,04,03,14,01,11.30
2010,04,03,14,02,9.60
2010,04,03,14,03,11.30
2010,04,03,14,04,11.30
2010,04,03,14,05,6.40
2010,04,03,14,06,3.20
2010,04,03,14,07,6.40
2010,04,03,14,08,9.60
2010,04,03,14,09,11.30
2010,04,03,14,10,16.10
2010,04,03,14,11,6.40
2010,04,03,14,12,4.80
2010,04,03,14,13,8.10
2010,04,03,14,14,4.80
2010,04,03,14,15,4.80
2010,04,03,14,16,9.60
2010,04,03,14,17,17.70
2010,04,03,14,18,17.70
2010,04,03,14,19,11.30
2010,04,03,14,20,12.90
2010,04,03,14,21,9.60
2010,04,03,14,22,11.30
2010,04,03,14,23,9.60
2010,04,03,14,24,9.60
2010,04,03,14,25,9.60
2010,04,03,14,26,11.30
2010,04,03,14,27,9.60
2010,04,03,14,28,8.10
2010,04,03,14,29,12.90
2010,04,03,14,30,8.10
2010,04,03,14,31,6.40
2010,04,03,14,32,12.90
2010,04,03,14,33,8.10
2010,04,03,14,34,8.10
2010,04,03,14,35,11.30
2010,04,03,14,36,17.70
2010,04,03,14,37,16.10
2010,04,03,14,38,9.60
2010,04,03,14,39,11.30
2010,04,03,14,40,11.30
2010,04,03,14,41,12.90
2010,04,03,14,42,11.30
2010,04,03,14,43,9.60
2010,04,03,14,44,12.90
2010,04,03,14,45,11.30
2010,04,03,14,46,9.60
2010,04,03,14,47,9.60
2010,04,03,14,48,11.30
2010,04,03,14,49,9.60
2010,04,03,14,50,6.40
2010,04,03,14,51,4.80
2010,04,03,14,52,8.10
2010,04,03,14,53,11.30
2010,04,03,14,54,9.60
2010,04,03,14,55,8.10
2010,04,03,14,56,16.10
2010,04,03,14,57,14.50
2010,04,03,14,58,14.50
2010,04,03,14,59,6.40
2010,04,03,15,00,9.60
2010,04,03,15,01,8.10
2010,04,03,15,02,4.80
2010,04,03,15,03,6.40
2010,04,03,15,04,6.40
2010,04,03,15,05,8.10
2010,04,03,15,06,4.80
2010,04,03,15,07,3.20
2010,04,03,15,08,9.60
2010,04,03,15,09,4.80
2010,04,03,15,10,4.80
2010,04,03,15,11,14.50
2010,04,03,15,12,12.90
2010,04,03,15,13,9.60
2010,04,03,15,14,17.70
2010,04,03,15,15,19.30
2010,04,03,15,16,14.50
2010,04,03,15,17,11.30
2010,04,03,15,18,16.10
2010,04,03,15,19,20.90
2010,04,03,15,20,11.30
2010,04,03,15,21,11.30
2010,04,03,15,22,17.70
2010,04,03,15,23,16.10
2010,04,03,15,24,14.50
2010,04,03,15,25,9.60
2010,04,03,15,26,6.40
2010,04,03,15,27,19.30
2010,04,03,15,28,11.30
2010,04,03,15,29,9.60
2010,04,03,15,30,9.60
2010,04,03,15,31,14.50
2010,04,03,15,32,12.90
2010,04,03,15,33,9.60
2010,04,03,15,34,9.60
2010,04,03,15,35,6.40
2010,04,03,15,36,4.80
2010,04,03,15,37,6.40
2010,04,03,15,38,4.80
2010,04,03,15,39,8.10
2010,04,03,15,40,9.60
2010,04,03,15,41,9.60
2010,04,03,15,42,17.70
2010,04,03,15,43,9.60
2010,04,03,15,44,8.10
2010,04,03,15,45,8.10
2010,04,03,15,46,8.10
2010,04,03,15,47,11.30
2010,04,03,15,48,8.10
2010,04,03,15,49,11.30
2010,04,03,15,50,16.10
2010,04,03,15,51,11.30
2010,04,03,15,52,12.90
2010,04,03,15,53,8.10
2010,04,03,15,54,9.60
2010,04,03,15,55,8.10
2010,04,03,15,56,8.10
2010,04,03,15,57,4.80
2010,04,03,15,58,4.80
2010,04,03,15,59,12.90
2010,04,03,16,00,11.30
2010,04,03,16,01,8.10
2010,04,03,16,02,17.70
2010,04,03,16,03,16.10
2010,04,03,16,04,9.60
2010,04,03,16,05,11.30
2010,04,03,16,06,14.50
2010,04,03,16,07,11.30
2010,04,03,16,08,14.50
2010,04,03,16,09,8.10
2010,04,03,16,10,11.30
2010,04,03,16,11,9.60
2010,04,03,16,12,6.40
2010,04,03,16,13,8.10
2010,04,03,16,14,9.60
2010,04,03,16,15,8.10
2010,04,03,16,16,6.40
2010,04,03,16,17,6.40
2010,04,03,16,18,4.80
2010,04,03,16,19,4.80
2010,04,03,16,20,4.80
2010,04,03,16,21,4.80
2010,04,03,16,22,6.40
2010,04,03,16,23,4.80
2010,04,03,16,24,3.20
2010,04,03,16,25,8.10
2010,04,03,16,26,4.80
2010,04,03,16,27,4.80
2010,04,03,16,28,6.40
2010,04,03,16,29,6.40
2010,04,03,16,30,4.80
2010,04,03,16,31,4.80
2010,04,03,16,32,8.10
2010,04,03,16,33,8.10
2010,04,03,16,34,9.60
2010,04,03,16,35,6.40
2010,04,03,16,36,8.10
2010,04,03,16,37,9.60
2010,04,03,16,38,6.40
2010,04,03,16,39,6.40
2010,04,03,16,40,14.50
2010,04,03,16,41,9.60
2010,04,03,16,42,12.90
2010,04,03,16,43,9.60
2010,04,03,16,44,9.60
2010,04,03,16,45,6.40
2010,04,03,16,46,4.80
2010,04,03,16,47,6.40
2010,04,03,16,48,8.10
2010,04,03,16,49,9.60
2010,04,03,16,50,9.60
2010,04,03,16,51,4.80
2010,04,03,16,52,8.10
2010,04,03,16,53,8.10
2010,04,03,16,54,9.60
2010,04,03,16,55,8.10
2010,04,03,16,56,8.10
2010,04,03,16,57,9.60
2010,04,03,16,58,9.60
2010,04,03,16,59,9.60
2010,04,03,17,00,8.10
2010,04,03,17,01,9.60
2010,04,03,17,02,8.10
2010,04,03,17,03,9.60
2010,04,03,17,04,3.20
2010,04,03,17,05,6.40
2010,04,03,17,06,11.30
2010,04,03,17,07,8.10
2010,04,03,17,08,11.30
2010,04,03,17,09,14.50
2010,04,03,17,10,9.60
2010,04,03,17,11,9.60
2010,04,03,17,12,11.30
2010,04,03,17,13,9.60
2010,04,03,17,14,11.30
2010,04,03,17,15,9.60
2010,04,03,17,16,6.40
2010,04,03,17,17,6.40
2010,04,03,17,18,4.80
2010,04,03,17,19,6.40
2010,04,03,17,20,6.40
2010,04,03,17,21,9.60
2010,04,03,17,22,8.10
2010,04,03,17,23,6.40
2010,04,03,17,24,12.90
2010,04,03,17,25,4.80
2010,04,03,17,26,4.80
2010,04,03,17,27,4.80
2010,04,03,17,28,6.40
2010,04,03,17,29,6.40
2010,04,03,17,30,8.10
2010,04,03,17,31,4.80
2010,04,03,17,32,6.40
2010,04,03,17,33,4.80
2010,04,03,17,34,8.10
2010,04,03,17,35,9.60